When you browse on this site, cookies collect data to enhance your experience and personalize the content and advertising you see.
Visit our Privacy Policy to learn more. By continuing to use the site, you agree to this use of cookies and data.
  • In Sweden
  • List of Countries
  • For 7 days
  • Water Temperature
  • Weather Map
  • Weather Widgets
  • user-avatar
    Login

    Hourly Weather Ruposy

    Today, 14 December, Saturday

    Time Temperature Precipitation Wind Pressure Humidity
    00:00 -1°C° 0 mm 5 mps 738 mmHg 88%
    01:00 -1°C° 0 mm 5 mps 738 mmHg 86%
    02:00 -1°C° 0 mm 5 mps 738 mmHg 84%
    03:00 -1°C° 0 mm 5 mps 737 mmHg 84%
    04:00 -2°C° 0 mm 5 mps 737 mmHg 83%
    05:00 -2°C° 0 mm 5 mps 737 mmHg 83%
    06:00 -2°C° 0 mm 5 mps 737 mmHg 84%
    07:00 -2°C° 0 mm 5 mps 737 mmHg 85%
    08:00 -2°C° 0 mm 5 mps 737 mmHg 85%
    09:00 -2°C° 0 mm 5 mps 737 mmHg 84%
    10:00 -2°C° 0 mm 5 mps 738 mmHg 83%
    11:00 -1°C° 0 mm 5 mps 738 mmHg 82%
    12:00 -1°C° 0 mm 5 mps 737 mmHg 82%
    13:00 -1°C° 0 mm 5 mps 737 mmHg 83%
    14:00 -1°C° 0 mm 5 mps 737 mmHg 84%
    15:00 -1°C° 0 mm 5 mps 737 mmHg 87%
    16:00 -2°C° 0 mm 5 mps 737 mmHg 90%
    17:00 -2°C° 0 mm 5 mps 737 mmHg 93%
    18:00 -1°C° 0.2 mm 5 mps 737 mmHg 94%
    19:00 -1°C° 0.2 mm 5 mps 736 mmHg 95%
    20:00 -1°C° 0.2 mm 5 mps 736 mmHg 96%
    21:00 0°C° 0.1 mm 5 mps 736 mmHg 94%
    22:00 0°C° 0.1 mm 5 mps 736 mmHg 92%
    23:00 +1°C° 0.1 mm 5 mps 735 mmHg 91%

    Tomorrow, 15 December, Sunday

    Time Temperature Precipitation Wind Pressure Humidity
    00:00 +1°C° 0.2 mm 5 mps 735 mmHg 91%
    01:00 +1°C° 0.2 mm 5 mps 735 mmHg 92%
    02:00 +1°C° 0.2 mm 5 mps 735 mmHg 93%
    03:00 +1°C° 0.3 mm 5 mps 734 mmHg 93%
    04:00 +1°C° 0.3 mm 5 mps 734 mmHg 94%
    05:00 +1°C° 0.3 mm 5 mps 733 mmHg 94%
    06:00 +1°C° 0.4 mm 4 mps 733 mmHg 94%
    07:00 +1°C° 0.4 mm 4 mps 733 mmHg 94%
    08:00 +1°C° 0.4 mm 4 mps 732 mmHg 94%
    09:00 +1°C° 0.4 mm 4 mps 732 mmHg 95%
    10:00 +1°C° 0.4 mm 4 mps 733 mmHg 95%
    11:00 +1°C° 0.4 mm 4 mps 733 mmHg 96%
    12:00 +1°C° 0.5 mm 4 mps 733 mmHg 96%
    13:00 0°C° 0.5 mm 4 mps 734 mmHg 96%
    14:00 0°C° 0.5 mm 4 mps 734 mmHg 96%
    15:00 0°C° 0.1 mm 4 mps 735 mmHg 93%
    16:00 0°C° 0.1 mm 4 mps 735 mmHg 89%
    17:00 +1°C° 0.1 mm 4 mps 736 mmHg 86%
    18:00 0°C° 0 mm 4 mps 736 mmHg 87%
    19:00 0°C° 0 mm 4 mps 737 mmHg 87%
    20:00 0°C° 0 mm 3 mps 737 mmHg 88%
    21:00 -1°C° 0 mm 4 mps 737 mmHg 87%
    22:00 -1°C° 0 mm 4 mps 736 mmHg 86%
    23:00 0°C° 0 mm 5 mps 736 mmHg 85%

    Day after tomorrow, 16 December, Monday

    Time Temperature Precipitation Wind Pressure Humidity
    00:00 0°C° 0.5 mm 5 mps 736 mmHg 86%
    01:00 +1°C° 0.5 mm 5 mps 735 mmHg 87%
    02:00 +1°C° 0.5 mm 5 mps 735 mmHg 88%
    03:00 +1°C° 0.1 mm 5 mps 735 mmHg 87%
    04:00 +1°C° 0.1 mm 6 mps 736 mmHg 85%
    05:00 -1°C° 0.1 mm 6 mps 736 mmHg 84%
    06:00 +1°C° 0 mm 6 mps 736 mmHg 82%
    07:00 +1°C° 0 mm 6 mps 737 mmHg 80%
    08:00 +1°C° 0 mm 6 mps 737 mmHg 78%
    09:00 +1°C° 0 mm 6 mps 738 mmHg 77%
    10:00 0°C° 0 mm 7 mps 738 mmHg 76%
    11:00 0°C° 0 mm 7 mps 739 mmHg 76%
    12:00 0°C° 0 mm 7 mps 739 mmHg 75%
    13:00 0°C° 0 mm 7 mps 740 mmHg 74%
    14:00 +1°C° 0 mm 6 mps 740 mmHg 73%
    15:00 +1°C° 0 mm 6 mps 741 mmHg 75%
    16:00 +1°C° 0 mm 5 mps 742 mmHg 78%
    17:00 +1°C° 0 mm 4 mps 743 mmHg 80%
    18:00 0°C° 0 mm 4 mps 743 mmHg 84%
    19:00 0°C° 0 mm 4 mps 744 mmHg 87%
    20:00 0°C° 0 mm 3 mps 744 mmHg 91%
    21:00 0°C° 0 mm 3 mps 745 mmHg 92%
    22:00 0°C° 0 mm 3 mps 745 mmHg 93%
    23:00 -1°C° 0 mm 3 mps 745 mmHg 94%

    17 December, Tuesday

    Time Temperature Precipitation Wind Pressure Humidity
    00:00 -1°C° 0 mm 3 mps 745 mmHg 93%
    01:00 -1°C° 0 mm 3 mps 745 mmHg 92%
    02:00 -1°C° 0 mm 2 mps 745 mmHg 91%
    03:00 -1°C° 0 mm 3 mps 745 mmHg 89%
    04:00 0°C° 0 mm 3 mps 745 mmHg 86%
    05:00 0°C° 0 mm 3 mps 745 mmHg 83%
    06:00 0°C° 0.1 mm 3 mps 744 mmHg 86%
    07:00 0°C° 0.1 mm 3 mps 744 mmHg 88%
    08:00 +1°C° 0.1 mm 3 mps 744 mmHg 91%
    09:00 +1°C° 0.4 mm 3 mps 744 mmHg 92%
    10:00 +1°C° 0.4 mm 3 mps 744 mmHg 94%
    11:00 +1°C° 0.4 mm 4 mps 744 mmHg 95%
    12:00 +2°C° 0.3 mm 3 mps 743 mmHg 94%
    13:00 +2°C° 0.3 mm 3 mps 743 mmHg 93%
    14:00 +2°C° 0.3 mm 3 mps 742 mmHg 92%
    15:00 +2°C° 0 mm 3 mps 742 mmHg 92%
    16:00 +2°C° 0 mm 3 mps 742 mmHg 93%
    17:00 +2°C° 0 mm 3 mps 742 mmHg 93%
    18:00 +2°C° 0 mm 3 mps 742 mmHg 94%
    19:00 +2°C° 0 mm 3 mps 742 mmHg 94%
    20:00 +1°C° 0 mm 3 mps 742 mmHg 94%
    21:00 +1°C° 0 mm 3 mps 742 mmHg 94%
    22:00 +2°C° 0 mm 3 mps 742 mmHg 94%
    23:00 +2°C° 0 mm 3 mps 742 mmHg 94%

    18 December, Wednesday

    Time Temperature Precipitation Wind Pressure Humidity
    00:00 +2°C° 0 mm 3 mps 741 mmHg 94%
    01:00 +2°C° 0 mm 3 mps 741 mmHg 94%
    02:00 +2°C° 0 mm 3 mps 741 mmHg 94%
    03:00 +2°C° 0 mm 3 mps 741 mmHg 95%
    04:00 +2°C° 0 mm 3 mps 741 mmHg 95%
    05:00 +2°C° 0 mm 3 mps 741 mmHg 95%
    06:00 +2°C° 0 mm 3 mps 741 mmHg 96%
    07:00 +2°C° 0 mm 2 mps 741 mmHg 96%
    08:00 +2°C° 0 mm 2 mps 741 mmHg 96%
    09:00 +3°C° 0 mm 2 mps 741 mmHg 96%
    10:00 +3°C° 0 mm 2 mps 741 mmHg 95%
    11:00 +2°C° 0 mm 3 mps 741 mmHg 94%
    12:00 +2°C° 0 mm 3 mps 741 mmHg 94%
    13:00 +2°C° 0 mm 3 mps 741 mmHg 94%
    14:00 +3°C° 0 mm 3 mps 740 mmHg 94%
    15:00 +3°C° 0 mm 3 mps 740 mmHg 94%
    16:00 +2°C° 0 mm 3 mps 740 mmHg 95%
    17:00 +2°C° 0 mm 3 mps 740 mmHg 95%
    18:00 +2°C° 0 mm 3 mps 740 mmHg 94%
    19:00 +3°C° 0 mm 4 mps 740 mmHg 94%
    20:00 +3°C° 0 mm 4 mps 739 mmHg 93%
    21:00 +3°C° 0 mm 4 mps 739 mmHg 93%
    22:00 +3°C° 0 mm 4 mps 739 mmHg 92%
    23:00 +3°C° 0 mm 4 mps 739 mmHg 92%

    19 December, Thursday

    Time Temperature Precipitation Wind Pressure Humidity
    00:00 +4°C° 0 mm 4 mps 739 mmHg 91%
    01:00 +4°C° 0 mm 4 mps 739 mmHg 90%
    02:00 +4°C° 0 mm 4 mps 739 mmHg 89%
    03:00 +4°C° 0 mm 4 mps 740 mmHg 88%
    04:00 +3°C° 0 mm 4 mps 740 mmHg 86%
    05:00 +3°C° 0 mm 4 mps 740 mmHg 84%
    06:00 +2°C° 0 mm 3 mps 741 mmHg 86%
    07:00 +1°C° 0 mm 3 mps 741 mmHg 89%
    08:00 +1°C° 0 mm 2 mps 741 mmHg 92%
    09:00 0°C° 0 mm 3 mps 741 mmHg 90%
    10:00 +1°C° 0 mm 3 mps 742 mmHg 89%
    11:00 +1°C° 0 mm 3 mps 742 mmHg 88%
    12:00 +1°C° 0 mm 3 mps 742 mmHg 86%
    13:00 +1°C° 0 mm 3 mps 742 mmHg 85%
    14:00 +1°C° 0 mm 3 mps 742 mmHg 83%
    15:00 +1°C° 0 mm 3 mps 742 mmHg 82%
    16:00 +1°C° 0 mm 3 mps 742 mmHg 82%
    17:00 +1°C° 0 mm 3 mps 743 mmHg 81%
    18:00 0°C° 0 mm 3 mps 743 mmHg 83%
    19:00 +1°C° 0 mm 2 mps 743 mmHg 84%
    20:00 +1°C° 0 mm 2 mps 743 mmHg 85%
    21:00 -1°C° 0 mm 2 mps 744 mmHg 87%
    22:00 -1°C° 0 mm 2 mps 744 mmHg 88%
    23:00 -2°C° 0 mm 2 mps 744 mmHg 90%
    Show more